Regional Weather Roundup
Issued by NWS

Home | Current Version | Previous Version | Text Only | Print | Product List | Glossary Off
Versions: 1 2 3 4 5 6 7 8 9 10 11 12 13 14 15 16 17 18 19 20 21 22 23 24 25 26 27 28 29 30 31 32 33 34 35 36 37 38 39 40 41 42 43 44 45 46 47 48 49 50

000
ASUS43 KOAX 240302
RWRNE

WEATHER ROUNDUP FOR NEBRASKA
NATIONAL WEATHER SERVICE OMAHA NE
900 PM CST SUN NOV 23 2014

NOTES: SATELLITE DATA IS BEING USED TO AUGMENT CLOUD COVER ABOVE
       12000 FEET.
       "FAIR" INDICATES FEW OR NO CLOUDS BELOW 12,000 FEET WITH NO
       SIGNIFICANT WEATHER AND/OR OBSTRUCTIONS TO VISIBILITY.

  * THESE STATIONS DO NOT REPORT WEATHER SUCH AS RAIN...SNOW OR FOG.

NEZ001>004-019>022-054>056-240400-
NEBRASKA PANHANDLE

CITY           SKY/WX    TMP DP  RH WIND       PRES   REMARKS
SCOTTSBLUFF    CLOUDY    31  24  75 W13       29.84S WCI  21
ALLIANCE       PTCLDY    27  18  69 W13       29.78F WCI  16
CHADRON        CLOUDY    31  22  69 W8        29.79F WCI  23
SIDNEY         CLEAR     29  17  61 NW13      29.82F WCI  19
$$

NEZ057>060-069>072-079>082-240400-
SOUTHWEST NEBRASKA

CITY           SKY/WX    TMP DP  RH WIND       PRES   REMARKS
NORTH PLATTE   CLEAR     31  23  72 W12       29.74S WCI  22
IMPERIAL       CLEAR     31  12  45 NW12      29.79S WCI  22
MCCOOK         CLEAR     36  15  42 NW16      29.76S WCI  26
$$

NEZ005>010-023>029-035>040-094-240400-
NORTH CENTRAL NEBRASKA

CITY           SKY/WX    TMP DP  RH WIND       PRES   REMARKS
VALENTINE      CLOUDY    33  21  61 NW18G28   29.69F WCI  22
AINSWORTH      CLOUDY    33  21  61 NW31G41   29.67F WCI  19
BROKEN BOW     CLEAR     37  22  54 NW25G37   29.67S WCI  25
ORD            MOCLDY    36  25  64 NW22      29.65R WCI  25
$$

NEZ041-046>049-061>064-073>077-083>087-240400-
SOUTH CENTRAL NEBRASKA

CITY           SKY/WX    TMP DP  RH WIND       PRES   REMARKS
AURORA         PTCLDY    37  26  65 NW17G25   29.64R WCI  27
HASTINGS       CLEAR     34  24  67 NW12      29.66R WCI  25
KEARNEY *      CLEAR     37  19  48 W13       29.70R WCI  29
$$

NEZ011>018-030>034-042>045-240400-
NORTHEAST NEBRASKA

CITY           SKY/WX    TMP DP  RH WIND       PRES   REMARKS
NORFOLK        CLOUDY    35  23  61 NW30G43   29.59R WCI  22
ALBION         PTCLDY    34  23  64 NW33G43   29.61F WCI  20
BLAIR          CLOUDY    41  31  67 NW17G30   29.52S
COLUMBUS *     CLOUDY    37  25  60 NW24G32   29.61S WCI  26
TEKAMAH        CLOUDY    40  26  57 NW26G41   29.55R WCI  29
$$

NEZ050>053-065>068-078-088>093-240400-
SOUTHEAST NEBRASKA

CITY           SKY/WX    TMP DP  RH WIND       PRES   REMARKS
LINCOLN        MOCLDY    41  26  55 NW22G30   29.59S
OMAHA EPPLEY   CLOUDY    42  30  62 NW20      29.52F
BEATRICE       MOCLDY    39  30  71 NW16      29.59R WCI  30
FALLS CITY     CLOUDY    42  33  70 NW14      29.51S
NEBRASKA CITY  CLOUDY    40  31  68 NW13      29.52S WCI  33
$$

NEZ044-045-051>053-067-240400-
OMAHA AREA

CITY           SKY/WX    TMP DP  RH WIND       PRES   REMARKS
OMAHA EPPLEY   CLOUDY    42  30  62 NW20      29.52F
BLAIR          CLOUDY    41  31  67 NW17G30   29.52S
OFFUTT AFB     CLOUDY    42  30  62 NW18      29.51F
WAHOO          FAIR      39  27  61 NW17G25   29.56S WCI  30
$$



USA.gov is the U.S. government's official web portal to all federal, state and local government web resources and services.